Skip Page Navigation
NASA JPL Caltech
NASA Logo - Jet Propulsion Laboratory + View the NASA Portal
+ Center for Near-Earth Object Studies
JPL Home Earth Solar System Stars & Galaxies Technology
JPL Solar System Dynamics
BODIES ORBITS EPHEMERIDES TOOLS PHYSICAL DATA DISCOVERY FAQ SITE MAP
IMPORTANT: The SSD Announcement email list is now available. Major changes are coming in the near future, including possible hostname and/or URL changes. To be notified of such changes, subscribe to this email list.

Please visit this page for more details.


JPL Small-Body Database Browser
Search: [ help ]  
233035 (2005 EQ318)
Classification: Main-belt Asteroid          SPK-ID: 2233035
Ephemeris | Orbit Diagram | Orbital Elements | Mission Design | Physical Parameters | Discovery Circumstances | Close-Approach Data ]

[ show orbit diagram ]
Orbital Elements at Epoch 2458600.5 (2019-Apr-27.0) TDB
Reference: JPL 17 (heliocentric ecliptic J2000)
 Element Value Uncertainty (1-sigma)   Units 
e .072805183003174 7.7074e-08  
a 2.989810270343499 3.9734e-08 au
q 2.772136586466372 2.3003e-07 au
i 11.40968912404666 6.676e-06 deg
node 104.6799594246303 3.9636e-05 deg
peri 112.4639689818451 7.0278e-05 deg
M 237.6867774962053 5.9732e-05 deg
tp 2459242.056306725268
(2021-Jan-27.55630673)
0.00031943 TDB
period 1888.269033333098
5.17
3.7643e-05
1.031e-07
d
yr
n .190650799036058 3.8006e-09 deg/d
Q 3.207483954220626 4.2627e-08 au
  Orbit Determination Parameters
   # obs. used (total)      293  
   data-arc span      9148 days (25.05 yr)  
   first obs. used      1994-01-08  
   last obs. used      2019-01-25  
   planetary ephem.      DE431  
   SB-pert. ephem.      SB431-N16  
   condition code      0  
   norm. resid. RMS      .57967  
   source      ORB  
   producer      Otto Matic  
   solution date      2019-Jul-14 03:49:35  

Additional Information
 Earth MOID = 1.78738 au 
 Jupiter MOID = 1.88499 au 
 T_jup = 3.222 
[ show covariance matrix ]

Ephemeris | Orbit Diagram | Orbital Elements | Mission Design | Physical Parameters | Discovery Circumstances | Close-Approach Data ]

Physical Parameter Table
Parameter Symbol Value Units Sigma Reference Notes
absolute magnitude H 15.3   n/a MPO418244  
diameter diameter 4.230 km 0.206 urn:nasa:pds:neowise_diameters_albedos::2.0[mainbelt] (http://adsabs.harvard.edu/abs/2011ApJ...741...68M)  
geometric albedo albedo 0.075   0.018 urn:nasa:pds:neowise_diameters_albedos::2.0[mainbelt] (http://adsabs.harvard.edu/abs/2011ApJ...741...68M)  

233035 (2005 EQ318)          Discovered 2005-Mar-03 by CSS at Catalina
Reference: 20100228/Numbers.arcLast Updated: 2010-03-03

[ hide close-approach data ]
Close-Approach Data   ...sorted by Date/Time (TDB)
Date/Time (TDB) Time Uncertainty
(days_HH:MM)
Body Nominal Distance (au) Minimum Distance (au) Maximum Distance (au) V-relative (km/s) V-infinity (km/s) JD (TDB) Time Uncertainty (minutes) Semi-major axis (km) Semi-minor axis (km) range-LOV angle (deg) N-sigma BP Orbit Ref. Reference Modified
1904-Jul-06 13:20 00:07 Jupiter 1.8910962192289 1.89109526107152 1.89109717740187 2.38482681616983 2.18897199479705 2416668.055479501 7.24532225894196 614.46655971958 24.2678770439038 89.1053214959272 1516382.57550058 T 17 CATAB v2.0e-lin.ifort 2019-Jul-14 03:49:41 2019-Jul-14 03:49
1941-Apr-17 19:31 00:05 Jupiter 1.89066395996932 1.89066284719729 1.8906650727407 3.06826086110061 2.91859886885835 2430102.313416771 4.53799012977548 131.260522761976 33.8649671468826 -88.3643583351408 756476.356531429 T 17 CATAB v2.0e-lin.ifort 2019-Jul-14 03:49:41 2019-Jul-14 03:49
1986-Oct-09 13:47 00:02 Jupiter 1.95431869294209 1.95431781851142 1.95431956737275 3.06639196822428 2.92163283498207 2446713.074040609 1.85743440836922 126.059494593934 29.482361797833 88.8746379879335 1499694.20282139 T 17 CATAB v2.0e-lin.ifort 2019-Jul-14 03:49:41 2019-Jul-14 03:49
2023-Jul-28 15:04 < 00:01 Jupiter 1.87830309440201 1.87830222506048 1.87830396374355 2.46371545150681 2.27332179380032 2460154.127651843 0.649002596389012 143.410792923959 34.4525440808406 -85.4070287999921 1481810.7027151 T 17 CATAB v2.0e-lin.ifort 2019-Jul-14 03:49:41 2019-Jul-14 03:49
2060-Apr-24 19:04 00:03 Jupiter 1.91336241054577 1.91336163008733 1.91336319100421 3.49366852168523 3.36457186061719 2473574.294618858 2.64970589616818 139.397050017918 31.1204858748219 -87.9646185250172 1553845.10243313 T 17 CATAB v2.0e-lin.ifort 2019-Jul-14 03:49:41 2019-Jul-14 03:49
2105-Oct-27 19:22 00:06 Jupiter 1.92841401136628 1.92841277196379 1.92841525078531 2.62781722804317 2.45498634624967 2490195.307170777 5.77808509891391 414.362272693401 24.1337259296667 89.1200897781914 1577316.84494029 T 17 CATAB v2.0e-lin.ifort 2019-Jul-14 03:49:41 2019-Jul-14 03:49
2142-Aug-15 13:18 00:08 Jupiter 1.86903346841799 1.86903262759158 1.86903430924537 2.81077295032194 2.6446303472638 2503636.054372247 7.89191789559075 426.791990344151 37.1995633436075 -81.5817272442849 1293622.9819038 T 17 CATAB v2.0e-lin.ifort 2019-Jul-14 03:49:41 2019-Jul-14 03:49
2179-Apr-29 07:33 00:09 Jupiter 1.95524351051457 1.95524075861795 1.9552462624613 3.8509815258926 3.73679641314552 2517041.814587426 9.3597836970512 544.315569918055 33.8940733066417 -78.4922998871697 1568088.17803232 T 17 CATAB v2.0e-lin.ifort 2019-Jul-14 03:49:41 2019-Jul-14 03:49
Ephemeris | Orbit Diagram | Orbital Elements | Mission Design | Physical Parameters | Discovery Circumstances | Close-Approach Data ]
ABOUT SSD CREDITS/AWARDS PRIVACY/COPYRIGHT GLOSSARY LINKS
FirstGov 2020-Jan-26 06:40 UT
(server date/time)  
NASA Home Page
Site Manager:   Ryan S. Park
Webmaster  Alan B. Chamberlin